Flag for U.S.A. Weather past 2 weeks in Oklahoma City, Oklahoma, U.S.A.

Now
70 °F

Light rain. Overcast.


Feels Like: 70 °F
Forecast: 71 / 86 °F
Wind: 18 mph from Southwest

Location: Will Rogers World Airport

Current Time: Aug 28, 2014 at 11:23:58 PM

Latest Report: Aug 28, 2014 at 10:52 PM


Visibility: 10 mi

Pressure: 29.90 "Hg

Humidity: 81%

Dew point: 64 °F

Location of Oklahoma CityLocation

Historic Weather in Oklahoma City — Graph

°F

Oklahoma City temperature yesterday

Maximum temperature yesterday: 95 °F (at 4:52 PM)
Minimum temperature yesterday: 70 °F (at 5:52 AM)
Average temperature yesterday: 83 °F

Past Weeks' High & Low Weather Summary

 TemperatureHumidityPressure
High100 °F (Aug 18, 3:52 PM)88% (Aug 18, 2:52 AM)30.07 "Hg (Aug 18, 2:52 AM)
Low66 °F (Aug 14, 6:52 AM)22% (Aug 23, 2:52 PM)29.75 "Hg (Aug 18, 5:52 PM)
Average84 °F56%29.89 "Hg
* Reported Aug 13 9:52 PM — Aug 28 9:52 PM, Oklahoma City, Weather by CustomWeather, © 2014

Note: Actual official high and low records may vary slightly from our data, if they occured in-between our weather recording intervals... More about our weather records

Advertising

Oklahoma City weather history for previous 24 hours

 ConditionsComfort  
Time TempWeatherWind HumidityBarometerVisibility
9:52 PM
Aug 28
72 °FLight rain. Overcast.13 mph78%29.91 "Hg10 mi
8:52 PM70 °FLight rain. Overcast.9 mph87%29.84 "Hg10 mi
7:52 PM73 °FLight rain. Mostly cloudy.6 mph81%29.86 "Hg7 mi
6:52 PM77 °FCloudy.14 mph66%29.86 "Hg10 mi
5:52 PM83 °FMostly cloudy.13 mph50%29.83 "Hg10 mi
4:52 PM91 °FCloudy.14 mph36%29.81 "Hg10 mi
3:52 PM93 °FBroken clouds.9 mph34%29.83 "Hg10 mi
2:52 PM93 °FBroken clouds.10 mph34%29.86 "Hg10 mi
1:52 PM93 °FScattered clouds.13 mph34%29.88 "Hg10 mi
12:52 PM92 °FScattered clouds.12 mph38%29.90 "Hg10 mi
11:52 AM90 °FPassing clouds.14 mph39%29.91 "Hg10 mi
10:52 AM87 °FScattered clouds.14 mph43%29.92 "Hg10 mi
9:52 AM83 °FPassing clouds.13 mph50%29.92 "Hg10 mi
8:52 AM77 °FPassing clouds.9 mph64%29.93 "Hg10 mi
7:52 AM72 °FClear.7 mph78%29.93 "Hg10 mi
6:52 AM69 °FPassing clouds.6 mph84%29.92 "Hg10 mi
5:52 AM69 °FPassing clouds.5 mph84%29.92 "Hg10 mi
4:52 AM70 °FPassing clouds.6 mph81%29.93 "Hg10 mi
3:52 AM72 °FPassing clouds.7 mph78%29.93 "Hg10 mi
2:52 AM71 °FPassing clouds.6 mph78%29.94 "Hg10 mi
1:52 AM74 °FPassing clouds.6 mph74%29.95 "Hg10 mi
12:52 AM76 °FPassing clouds.7 mph69%29.96 "Hg10 mi
11:52 PM
Aug 27
79 °FPassing clouds.9 mph62%29.96 "Hg10 mi
Weather by CustomWeather, © 2014

See weather overviewHow to use our weather pages